Back to catalog

COSMOS 2535 DEB

AliveSSO
NORAD 44641·DEBRIS·🇷🇺 Russia

Launched Jul 10, 2019 from Plesetsk Cosmodrome

Loading…

Next Passes (next 24 hours)

TLE

FreshSource: Space-Track

Epoch: Sep 14, 2026, 10:58 UTC

1 44641U 19039M   26257.45698637  .00016173  00000-0  46689-3 0  9995
2 44641  97.5451 333.3675 0013336  16.8251 343.3432 15.35673316380813

Track COSMOS 2535 DEB in real time with AllMySat

Download on the App Store